Satellite: NOAA-17
Catalog number: 27453
Epoch time:      12172.74552719
Element set:    0744
Inclination:      098.3357 deg
RA of node:       199.6029 deg
Eccentricity:    0.0012364
Arg of perigee:   142.0905 deg
Mean anomaly:     218.1133 deg
Mean motion:   14.24448994 rev/day
Decay rate:       3.51e-06 rev/day^2
Epoch rev:           51926
Checksum:              315

Satellite: NOAA-18
Catalog number: 28654
Epoch time:      12172.75135246
Element set:    0221
Inclination:      099.0454 deg
RA of node:       130.8687 deg
Eccentricity:    0.0014760
Arg of perigee:   141.4841 deg
Mean anomaly:     218.7381 deg
Mean motion:   14.11662370 rev/day
Decay rate:       -9.1e-07 rev/day^2
Epoch rev:           36506
Checksum:              293

Satellite: NOAA-19
Catalog number: 33591
Epoch time:      12172.76001829
Element set:    0414
Inclination:      098.8641 deg
RA of node:       112.5051 deg
Eccentricity:    0.0014631
Arg of perigee:   014.9262 deg
Mean anomaly:     345.2355 deg
Mean motion:   14.11350686 rev/day
Decay rate:       1.73e-06 rev/day^2
Epoch rev:           17351
Checksum:              276

/EX
SB KEPS @ AMSAT  $ORB12173.M
Orbital Elements  12173.MISC

HR AMSAT ORBITAL ELEMENTS FOR MANNED AND MISCELLANEOUS SATELLITES
FROM WA5QGD FORT WORTH,TX June 21, 2012
Send SUBSCRIBE KEPS/UNSUBSCRIBE KEPS to majordomo@amsat.org only
BID: ORB12173.M
TO ALL RADIO AMATEURS BT

Satellite: HUBBLE
Catalog number: 20580
Epoch time:      12173.90651463
Element set:      20
Inclination:      028.4670 deg
RA of node:       112.6569 deg
Eccentricity:    0.0003150
Arg of perigee:   114.8918 deg
Mean anomaly:     245.2198 deg
Mean motion:   15.02570551 rev/day
Decay rate:      1.229e-05 rev/day^2
Epoch rev:            1544
Checksum:              261

Satellite: ISS
Catalog number: 25544
Epoch time:      12173.89080567
Element set:     791
Inclination:      051.6378 deg
RA of node:       098.8696 deg
Eccentricity:    0.0008487
Arg of perigee:   078.9999 deg
Mean anomaly:     354.8665 deg
Mean motion:   15.55737194 rev/day
Decay rate:     1.7190e-04 rev/day^2
Epoch rev:           77874
Checksum:              390

Satellite: CO-58
Catalog number: 28895
Epoch time:      12173.60430504
Element set:     206
Inclination:      097.9120 deg
RA of node:       039.6830 deg
Eccentricity:    0.0018818
Arg of perigee:   135.0330 deg
Mean anomaly:     225.2407 deg
Mean motion:   14.60652431 rev/day
Decay rate:       5.64e-06 rev/day^2
Epoch rev:           35430
Checksum:              281

Satellite: FALCON
Catalog number: 30776
Epoch time:      12172.63311605
Element set:     372
Inclination:      035.4332 deg
RA of node:       255.7958 deg
Eccentricity:    0.0002361
Arg of perigee:   026.9835 deg
Mean anomaly:     333.1006 deg
Mean motion:   15.07614674 rev/day
Decay rate:      3.515e-05 rev/day^2
Epoch rev:           29077
Checksum:              283

Satellite: MAST
Catalog number: 31126
Epoch time:      12172.52576113
Element set:    0491
Inclination:      097.8724 deg
RA of node:       183.4316 deg
Eccentricity:    0.0094926
Arg of perigee:   100.0788 deg
Mean anomaly:     261.1125 deg
Mean motion:   14.54173988 rev/day
Decay rate:       6.35e-06 rev/day^2
Epoch rev:           27475
Checksum:              303

Satellite: CAPE1
Catalog number: 31130
Epoch time:      12172.49564149
Element set:     497
Inclination:      097.8821 deg
RA of node:       179.7825 deg
Eccentricity:    0.0102661
Arg of perigee:   113.2007 deg
Mean anomaly:     247.9978 deg
Mean motion:   14.52954791 rev/day
Decay rate:       5.21e-06 rev/day^2
Epoch rev:           27425
Checksum:              318

Satellite: COMPASS
Catalog number: 32787
Epoch time:      12172.71019240
Element set:    0336
Inclination:      097.8008 deg
RA of node:       233.9680 deg
Eccentricity:    0.0016284
Arg of perigee:   051.5947 deg
Mean anomaly:     308.6711 deg
Mean motion:   14.84040052 rev/day
Decay rate:      1.820e-05 rev/day^2
Epoch rev:           22433
Checksum:              278

Satellite: AAUSAT2
Catalog number: 32788
Epoch time:      12172.67906079
Element set:    0326
Inclination:      097.8044 deg
RA of node:       234.3225 deg
Eccentricity:    0.0016097
Arg of perigee:   053.0694 deg
Mean anomaly:     307.1944 deg
Mean motion:   14.84368974 rev/day
Decay rate:      2.811e-05 rev/day^2
Epoch rev:           22435
Checksum:              319

Satellite: DO-64
Catalog number: 32789
Epoch time:      12173.59851344
Element set:     341
Inclination:      097.8119 deg
RA of node:       237.2578 deg
Eccentricity:    0.0015460
Arg of perigee:   046.9108 deg
Mean anomaly:     313.3385 deg
Mean motion:   14.85882694 rev/day
Decay rate:      3.112e-05 rev/day^2
Epoch rev:           22453
Checksum:              326

Satellite: CO-66
Catalog number: 32791
Epoch time:      12172.70118379
Element set:     324
Inclination:      097.8009 deg
RA of node:       233.6980 deg
Eccentricity:    0.0016767
Arg of perigee:   051.7822 deg
Mean anomaly:     308.4888 deg
Mean motion:   14.83450877 rev/day
Decay rate:      1.520e-05 rev/day^2
Epoch rev:           22426
Checksum:              327

